Location: Mentone
(34.5413°N, 85.5351°W)
Time: 21:05:24
(UTC-05:00)

S-56A Canister/Altair - Visible Passes

Search period start: 22 August 2017 00:00
Search period end: 01 September 2017 00:00
Orbit: 637 x 2497 km, 38.9° (Epoch: 22 August)

Date Brightness Start Highest point End Pass type
(mag) Time Alt. Az. Time Alt. Az. Time Alt. Az.
23 Aug 11.6 05:16:06 10° SSE 05:22:24 14° SE 05:28:04 10° ESE visible
24 Aug 11.7 04:44:48 10° SSE 04:49:25 12° SE 04:53:43 10° ESE visible
26 Aug 10.9 05:36:15 10° SSW 05:48:39 34° SE 05:58:42 10° E visible
27 Aug 11.0 05:03:29 10° SSW 05:15:33 31° SE 05:25:44 10° E visible
28 Aug 11.1 04:30:52 10° S 04:42:27 28° SE 04:52:35 10° E visible
29 Aug 11.2 03:58:27 10° S 04:09:21 25° SE 04:19:15 10° E visible
30 Aug 11.3 03:27:09 12° S 03:36:15 22° SE 03:45:41 10° E visible
30 Aug 10.4 05:27:16 10° SW 05:41:47 56° SE 05:53:32 10° ENE visible
31 Aug 11.3 02:56:49 14° SSE 03:03:11 19° SE 03:11:48 10° E visible
31 Aug 10.4 04:54:17 10° SW 05:08:32 52° SE 05:20:41 10° ENE visible
